STARLINK-33804, 63511

Orbit data source: Space-Track

STARLINK-33804, 63511 is a payload satellite owned by SpaceX/Seattle (US) in LEO that was launched on Mon, 07 Apr 2025 UTC via an FALCON 9 launch vehicle from the Air Force Western Test Range (AFWTR). Payload-class satellites include a variety of spacecraft equipped with specific instruments for various scientific and technological missions. These include communications satellites like Starlink; space stations such as the ISS; scientific satellites like the Hubble; Earth observation satellites from companies like Planet Labs, Umbra, and HawkEye 360; GPS; miniature CubeSats for education and research; and military/defense satellites.

Loading next visibility...
Identifier
63511, 2025-071U
Orbit
LEO
Last TLE update
15 hours ago
Origin
Manufacturer
SpaceX/Seattle
Mission
Operational Commercial Communications
Bus & Motor
STARLINK V2MO, Unknown motor
Mass
575 kg wet, ~530 kg dry
Launch date (UTC)
2025-04-07 (1 month ago)
Launch vehicle
FALCON 9
Launch site
Air Force Western Test Range (AFWTR)
Object type
Payload
Rocket body
Debris
Shape & HBR
Box + 1 Pan, 29 m
Radar Cross Section
41.120 m², Large (>1 m²)

Expand to show TLE details & history

TLE from 15 hours ago
0 STARLINK-33804
1 63511U 25071U   25129.25002315 -.01367187  00000-0 -24197-1 0  9997
2 63511  53.1598 116.9437 0001216  68.5148  55.0315 15.52709417  5748
Epoch: 2025-05-09T06:00Z
Definitive object data (Epoch: 2025-05-09T06:00:02Z)
Latitude
41.96563°
Longitude
-62.44087°
Altitude
412.353 km
Speed
7.669 km/s
True Right ascension
16h 59m 30s
True Declination
41° 47' 10"
Sunlit
Object was in full shadow at TLE epoch
Visualization TLE readout
Latitude
27.94043°
Longitude
179.88476°
Altitude
415.006 km
Speed
7.666 km/s
Apparent Right ascension
12h 31m 05s
Apparent Declination
-9° 32' 26"
Sunlit
Object is in daylight
Visualization observer readout
Local Sidereal Time
05:16:05
Azimuth
85.33° E
Elevation
-20.456°
Doppler factor
1
Orbital elements
Apogee altitude
409.903 km
Perigee altitude
408.253 km
Semi-major axis
6,787.215 km
Eccentricity
0.0001216
Inclination
53.1598°
RAAN
116.9437°
Arg. of periapsis
68.5148°
True anomaly
55.04292°
Mean anomaly
55.0315°
Eccentric anomaly
55.03721°
Mean motion
3.88156 °/min
BSTAR
-0.024197
Orbital period
92.75 mins
Loading maneuver chart data...
Loading SW <> Apogee altitude chart data...
Loading historical data...
Loading historical data...
Loading historical data...
Loading historical data...
Loading historical data...
Loading historical data...
Loading historical data...

STARLINK-33804 Visibility forecast

Observer location: undefined°, undefined°

Span
Click to sort rows by Start time (UTC) header in descending order
Start Az.
Max El. time (UTC)
Max El. Az.
Max El.
End time (UTC)
End Az.
5 mins2025-05-10 01:44:51.017Z222.976° SW2025-05-10 01:47:51.017Z85.58° E42.727°2025-05-10 01:49:51.017Z54.431° ENE
4 mins2025-05-10 08:15:51.017Z330.347° NNW2025-05-10 08:17:51.017Z73.39° E36.649°2025-05-10 08:19:51.017Z112.419° ESE
|